Change the Weather History Date:

Thursday, February 14, 2013

  Actual Average (KFLP) Record (KFLP)
Temperature  
Mean Temperature 46 °F -  
Max Temperature 64 °F 50 °F 71 °F (2005)
Min Temperature 28 °F 31 °F 19 °F (2002)
Degree Days  
Heating Degree Days 19    
Moisture  
Dew Point 33 °F    
Average Humidity 68    
Maximum Humidity 100    
Minimum Humidity 30    
Precipitation  
Precipitation 0.00 in - - ()
Sea Level Pressure  
Sea Level Pressure 30.02 in    
Wind  
Wind Speed 2 mph (WSW)    
Max Wind Speed 13 mph    
Max Gust Speed 18 mph    
Visibility 9 miles    
Events      
Averages and records for this station are not official NWS values.
T = Trace of Precipitation, MM = Missing Value Source: NWS Daily Summary

Daily Weather History Graph

Daily Weather History Graph

Search for Another Location

Airport or City:

Trip Planner

Search our weather history database for the weather conditions in past years. The results will help you decide how hot, cold, wet, or windy it might be!

Date:

Astronomy

Feb. 14, 2013 Rise Set
Actual Time 6:57 AM CST 5:51 PM CST
Civil Twilight 6:31 AM CST 6:17 PM CST
Nautical Twilight 6:01 AM CST 6:47 PM CST
Astronomical Twilight 5:31 AM CST 7:16 PM CST
Moon 9:11 AM CST (2/14) 10:41 PM CST (2/14)
Length of Visible Light 11h 46m
Length of Day
10h 53m
Waxing Crescent, 22% of the Moon is Illuminated
Feb 14
Waxing Crescent
Feb 17
First Quarter
Feb 25
Full
Mar 4
Last Quarter
Mar 11
New

Hourly Weather History & Observations

Time (CST) Temp. Windchill Dew Point Humidity Pressure Visibility Wind Dir Wind Speed Gust Speed Precip Events Conditions
12:15 AM 32.0 °F - 32.0 °F 100% 30.01 in 4.0 mi Calm Calm - N/A   Clear
12:35 AM 32.0 °F - 32.0 °F 100% 30.01 in 4.0 mi Calm Calm - N/A   Clear
12:55 AM 32.0 °F - 32.0 °F 100% 30.01 in 5.0 mi Calm Calm - N/A   Clear
1:15 AM 32.0 °F - 30.2 °F 93% 30.01 in 5.0 mi Calm Calm - N/A   Partly Cloudy
1:35 AM 32.0 °F - 30.2 °F 93% 30.01 in 5.0 mi Calm Calm - N/A   Partly Cloudy
1:55 AM 32.0 °F - 30.2 °F 93% 30.01 in 6.0 mi Calm Calm - N/A   Clear
2:15 AM 32.0 °F - 30.2 °F 93% 30.01 in 5.0 mi Calm Calm - N/A   Clear
2:35 AM 32.0 °F - 30.2 °F 93% 30.00 in 6.0 mi Calm Calm - N/A   Clear
2:55 AM 30.2 °F - 30.2 °F 100% 30.01 in 7.0 mi Calm Calm - N/A   Clear
3:15 AM 30.2 °F - 30.2 °F 100% 30.00 in 7.0 mi Calm Calm - N/A   Clear
3:35 AM 30.2 °F - 30.2 °F 100% 30.00 in 7.0 mi Calm Calm - N/A   Clear
3:55 AM 30.2 °F - 30.2 °F 100% 30.00 in 7.0 mi Calm Calm - N/A   Clear
4:15 AM 30.2 °F - 30.2 °F 100% 30.00 in 7.0 mi Calm Calm - N/A   Clear
4:35 AM 30.2 °F - 30.2 °F 100% 30.00 in 8.0 mi Calm Calm - N/A   Clear
4:55 AM 30.2 °F - 28.4 °F 93% 30.00 in 5.0 mi Calm Calm - N/A   Clear
5:55 AM 30.2 °F - 28.4 °F 93% 30.01 in 9.0 mi Calm Calm - N/A   Clear
6:15 AM 30.2 °F - 28.4 °F 93% 30.01 in 7.0 mi Calm Calm - N/A   Clear
6:35 AM 28.4 °F - 28.4 °F 100% 30.02 in 9.0 mi Calm Calm - N/A   Partly Cloudy
6:55 AM 28.4 °F - 28.4 °F 100% 30.02 in 10.0 mi Calm Calm - N/A   Partly Cloudy
7:15 AM 28.4 °F - 28.4 °F 100% 30.03 in 8.0 mi Calm Calm - N/A   Clear
7:35 AM 30.2 °F - 28.4 °F 93% 30.04 in 8.0 mi Calm Calm - N/A   Clear
7:55 AM 32.0 °F - 30.2 °F 93% 30.05 in 7.0 mi Calm Calm - N/A   Clear
8:15 AM 32.0 °F - 32.0 °F 100% 30.05 in 8.0 mi Calm Calm - N/A   Clear
8:35 AM 33.8 °F - 32.0 °F 93% 30.05 in 10.0 mi Calm Calm - N/A   Clear
8:55 AM 35.6 °F - 33.8 °F 93% 30.05 in 10.0 mi Calm Calm - N/A   Clear
9:15 AM 39.2 °F - 35.6 °F 87% 30.05 in 10.0 mi Calm Calm - N/A   Clear
9:55 AM 46.4 °F - 37.4 °F 71% 30.04 in 10.0 mi Calm Calm - N/A   Clear
10:15 AM 51.8 °F - 37.4 °F 58% 30.04 in 10.0 mi Calm Calm - N/A   Clear
10:35 AM 55.4 °F - 35.6 °F 47% 30.04 in 10.0 mi SW 5.8 mph - N/A   Clear
10:55 AM 57.2 °F - 32.0 °F 38% 30.03 in 10.0 mi SW 10.4 mph - N/A   Clear
11:15 AM 59.0 °F - 32.0 °F 36% 30.03 in 10.0 mi SW 9.2 mph - N/A   Clear
11:35 AM 59.0 °F - 32.0 °F 36% 30.02 in 10.0 mi WSW 9.2 mph - N/A   Clear
11:55 AM 60.8 °F - 32.0 °F 34% 30.02 in 10.0 mi SW 10.4 mph - N/A   Clear
12:15 PM 60.8 °F - 32.0 °F 34% 30.01 in 10.0 mi WSW 6.9 mph - N/A   Clear
12:35 PM 62.6 °F - 32.0 °F 32% 30.00 in 10.0 mi SW 6.9 mph - N/A   Clear
12:55 PM 62.6 °F - 32.0 °F 32% 29.99 in 10.0 mi SSW 9.2 mph - N/A   Clear
1:15 PM 64.4 °F - 32.0 °F 30% 29.98 in 10.0 mi SSW 8.1 mph - N/A   Clear
1:55 PM 64.4 °F - 32.0 °F 30% 29.97 in 10.0 mi WSW 8.1 mph - N/A   Clear
2:15 PM 64.4 °F - 32.0 °F 30% 29.97 in 10.0 mi SW 8.1 mph - N/A   Clear
2:35 PM 64.4 °F - 33.8 °F 32% 29.97 in 10.0 mi SSW 12.7 mph - N/A   Clear
2:55 PM 64.4 °F - 35.6 °F 34% 29.96 in 10.0 mi SW 10.4 mph - N/A   Partly Cloudy
3:15 PM 64.4 °F - 35.6 °F 34% 29.97 in 10.0 mi SW 9.2 mph - N/A   Partly Cloudy
3:35 PM 64.4 °F - 35.6 °F 34% 29.98 in 10.0 mi SSW 10.4 mph 16.1 mph N/A   Scattered Clouds
3:55 PM 64.4 °F - 35.6 °F 34% 29.98 in 10.0 mi SW 8.1 mph - N/A   Mostly Cloudy
4:15 PM 62.6 °F - 35.6 °F 37% 29.99 in 10.0 mi SSW 10.4 mph 18.4 mph N/A   Scattered Clouds
4:35 PM 62.6 °F - 35.6 °F 37% 29.99 in 10.0 mi SW 10.4 mph - N/A   Mostly Cloudy
4:55 PM 62.6 °F - 35.6 °F 37% 29.99 in 10.0 mi SW 6.9 mph - N/A   Partly Cloudy
5:15 PM 62.6 °F - 33.8 °F 34% 29.99 in 10.0 mi Calm Calm - N/A   Scattered Clouds
5:35 PM 62.6 °F - 33.8 °F 34% 30.00 in 10.0 mi WSW 8.1 mph - N/A   Mostly Cloudy
5:55 PM 60.8 °F - 32.0 °F 34% 30.01 in 10.0 mi NW 3.5 mph - N/A   Mostly Cloudy
6:15 PM 59.0 °F - 33.8 °F 39% 30.02 in 10.0 mi Calm Calm - N/A   Mostly Cloudy
6:35 PM 55.4 °F - 35.6 °F 47% 30.03 in 10.0 mi NNW 3.5 mph - N/A   Scattered Clouds
6:55 PM 51.8 °F - 39.2 °F 62% 30.03 in 10.0 mi North 3.5 mph - N/A   Clear
7:15 PM 48.2 °F - 39.2 °F 71% 30.04 in 10.0 mi Calm Calm - N/A   Clear
7:35 PM 46.4 °F - 39.2 °F 76% 30.05 in 10.0 mi Calm Calm - N/A   Clear
7:55 PM 44.6 °F - 39.2 °F 81% 30.06 in 10.0 mi Calm Calm - N/A   Clear
8:15 PM 44.6 °F - 37.4 °F 76% 30.06 in 10.0 mi Calm Calm - N/A   Clear
8:35 PM 42.8 °F - 37.4 °F 81% 30.07 in 10.0 mi Calm Calm - N/A   Clear
8:55 PM 42.8 °F - 37.4 °F 81% 30.07 in 10.0 mi Calm Calm - N/A   Clear
9:15 PM 41.0 °F - 37.4 °F 87% 30.08 in 10.0 mi Calm Calm - N/A   Clear
9:55 PM 42.8 °F - 35.6 °F 76% 30.09 in 10.0 mi Calm Calm - N/A   Clear
10:15 PM 42.8 °F - 37.4 °F 81% 30.09 in 10.0 mi Calm Calm - N/A   Clear
10:35 PM 44.6 °F 43.1 °F 37.4 °F 76% 30.10 in 10.0 mi NW 3.5 mph - N/A   Scattered Clouds
10:55 PM 48.2 °F - 32.0 °F 54% 30.09 in 10.0 mi North 3.5 mph - N/A   Scattered Clouds
11:15 PM 51.8 °F - 32.0 °F 47% 30.09 in 10.0 mi NNW 3.5 mph - N/A   Mostly Cloudy
11:35 PM 50.0 °F - 32.0 °F 50% 30.10 in 10.0 mi NNW 6.9 mph - N/A   Mostly Cloudy
11:55 PM 50.0 °F - 32.0 °F 50% 30.11 in 10.0 mi NNW 8.1 mph - N/A   Mostly Cloudy